EN

Hourly Weather Eger

Today, 24 October, Saturday

Time Temperature Precipitation Wind Pressure Humidity
00:00 +11°C° 0 mm 0 mps 744 mmHg 90%
01:00 +11°C° 0 mm 0 mps 744 mmHg 90%
02:00 +11°C° 0 mm 0 mps 744 mmHg 91%
03:00 +11°C° 0 mm 0 mps 744 mmHg 92%
04:00 +11°C° 0 mm 0 mps 744 mmHg 92%
05:00 +11°C° 0 mm 0 mps 744 mmHg 93%
06:00 +11°C° 0 mm 0 mps 744 mmHg 94%
07:00 +12°C° 0 mm 1 mps 744 mmHg 94%
08:00 +13°C° 0 mm 1 mps 744 mmHg 90%
09:00 +14°C° 0 mm 1 mps 744 mmHg 85%
10:00 +15°C° 0 mm 1 mps 745 mmHg 80%
11:00 +15°C° 0 mm 1 mps 745 mmHg 80%
12:00 +15°C° 0 mm 1 mps 745 mmHg 79%
13:00 +16°C° 0 mm 1 mps 745 mmHg 78%
14:00 +15°C° 0 mm 1 mps 745 mmHg 80%
15:00 +15°C° 0 mm 1 mps 745 mmHg 82%
16:00 +14°C° 0 mm 1 mps 744 mmHg 84%
17:00 +14°C° 0 mm 1 mps 745 mmHg 85%
18:00 +14°C° 0 mm 1 mps 745 mmHg 86%
19:00 +13°C° 0 mm 2 mps 745 mmHg 87%
20:00 +13°C° 0 mm 2 mps 745 mmHg 87%
21:00 +13°C° 0 mm 2 mps 745 mmHg 88%
22:00 +13°C° 0 mm 2 mps 745 mmHg 88%
23:00 +13°C° 0 mm 2 mps 745 mmHg 88%

Tomorrow, 25 October, Sunday

Time Temperature Precipitation Wind Pressure Humidity
00:00 +13°C° 0 mm 2 mps 745 mmHg 89%
01:00 +13°C° 0 mm 2 mps 745 mmHg 90%
02:00 +13°C° 0.1 mm 2 mps 744 mmHg 90%
03:00 +13°C° 0.1 mm 2 mps 744 mmHg 90%
04:00 +13°C° 0.1 mm 2 mps 743 mmHg 91%
05:00 +13°C° 0.6 mm 2 mps 744 mmHg 92%
06:00 +13°C° 0.6 mm 2 mps 744 mmHg 92%
07:00 +13°C° 0.6 mm 2 mps 744 mmHg 93%
08:00 +13°C° 1.2 mm 2 mps 743 mmHg 94%
09:00 +13°C° 1.2 mm 2 mps 743 mmHg 94%
10:00 +13°C° 1.2 mm 2 mps 743 mmHg 95%
11:00 +13°C° 1.1 mm 2 mps 743 mmHg 95%
12:00 +13°C° 1.1 mm 2 mps 743 mmHg 95%
13:00 +13°C° 1.1 mm 2 mps 743 mmHg 95%
14:00 +13°C° 0.3 mm 2 mps 743 mmHg 96%
15:00 +13°C° 0.3 mm 1 mps 742 mmHg 96%
16:00 +13°C° 0.3 mm 1 mps 742 mmHg 97%
17:00 +13°C° 0.1 mm 1 mps 742 mmHg 97%
18:00 +13°C° 0.1 mm 1 mps 742 mmHg 97%
19:00 +13°C° 0.1 mm 1 mps 743 mmHg 97%
20:00 +13°C° 0 mm 1 mps 743 mmHg 97%
21:00 +13°C° 0 mm 1 mps 743 mmHg 97%
22:00 +13°C° 0 mm 1 mps 743 mmHg 98%
23:00 +13°C° 0.1 mm 1 mps 743 mmHg 98%

Day after tomorrow, 26 October, Monday

Time Temperature Precipitation Wind Pressure Humidity
00:00 +13°C° 0.1 mm 1 mps 743 mmHg 98%
01:00 +13°C° 0.1 mm 1 mps 742 mmHg 98%
02:00 +13°C° 0 mm 1 mps 742 mmHg 98%
03:00 +13°C° 0 mm 1 mps 742 mmHg 98%
04:00 +13°C° 0 mm 1 mps 742 mmHg 98%
05:00 +13°C° 0 mm 2 mps 742 mmHg 98%
06:00 +13°C° 0 mm 2 mps 742 mmHg 97%
07:00 +13°C° 0 mm 2 mps 742 mmHg 97%
08:00 +13°C° 0 mm 2 mps 742 mmHg 94%
09:00 +13°C° 0 mm 3 mps 742 mmHg 91%
10:00 +14°C° 0 mm 3 mps 742 mmHg 88%
11:00 +14°C° 0 mm 3 mps 742 mmHg 84%
12:00 +16°C° 0 mm 3 mps 742 mmHg 81%
13:00 +17°C° 0 mm 4 mps 741 mmHg 78%
14:00 +16°C° 0.1 mm 3 mps 741 mmHg 79%
15:00 +16°C° 0.1 mm 3 mps 741 mmHg 79%
16:00 +16°C° 0.1 mm 3 mps 741 mmHg 80%
17:00 +16°C° 0 mm 3 mps 741 mmHg 81%
18:00 +14°C° 0 mm 3 mps 741 mmHg 83%
19:00 +14°C° 0 mm 3 mps 742 mmHg 84%
20:00 +15°C° 0 mm 2 mps 742 mmHg 85%
21:00 +15°C° 0 mm 2 mps 742 mmHg 85%
22:00 +14°C° 0 mm 2 mps 742 mmHg 86%
23:00 +14°C° 0 mm 2 mps 742 mmHg 87%

, 27 October, Tuesday

Time Temperature Precipitation Wind Pressure Humidity
00:00 +13°C° 0 mm 1 mps 742 mmHg 89%
01:00 +13°C° 0 mm 1 mps 742 mmHg 90%
02:00 +12°C° 0 mm 1 mps 742 mmHg 91%
03:00 +12°C° 0 mm 1 mps 742 mmHg 91%
04:00 +12°C° 0 mm 1 mps 742 mmHg 92%
05:00 +12°C° 0 mm 1 mps 742 mmHg 92%
06:00 +12°C° 0 mm 1 mps 742 mmHg 93%
07:00 +11°C° 0 mm 1 mps 742 mmHg 93%
08:00 +13°C° 0 mm 1 mps 742 mmHg 87%
09:00 +14°C° 0 mm 1 mps 742 mmHg 81%
10:00 +16°C° 0 mm 2 mps 742 mmHg 76%
11:00 +17°C° 0 mm 2 mps 742 mmHg 73%
12:00 +17°C° 0 mm 2 mps 742 mmHg 70%
13:00 +18°C° 0 mm 2 mps 742 mmHg 66%
14:00 +17°C° 0 mm 2 mps 742 mmHg 70%
15:00 +18°C° 0 mm 1 mps 742 mmHg 74%
16:00 +16°C° 0 mm 1 mps 741 mmHg 78%
17:00 +15°C° 0 mm 1 mps 742 mmHg 79%
18:00 +15°C° 0 mm 1 mps 742 mmHg 81%
19:00 +14°C° 0 mm 1 mps 742 mmHg 83%
20:00 +14°C° 0 mm 1 mps 742 mmHg 83%
21:00 +13°C° 0 mm 1 mps 743 mmHg 84%
22:00 +13°C° 0 mm 1 mps 743 mmHg 85%
23:00 +13°C° 0 mm 1 mps 743 mmHg 85%

27 October, Tuesday

Time Temperature Precipitation Wind Pressure Humidity
00:00 +13°C° 0 mm 1 mps 742 mmHg 89%
01:00 +13°C° 0 mm 1 mps 742 mmHg 90%
02:00 +12°C° 0 mm 1 mps 742 mmHg 91%
03:00 +12°C° 0 mm 1 mps 742 mmHg 91%
04:00 +12°C° 0 mm 1 mps 742 mmHg 92%
05:00 +12°C° 0 mm 1 mps 742 mmHg 92%
06:00 +12°C° 0 mm 1 mps 742 mmHg 93%
07:00 +11°C° 0 mm 1 mps 742 mmHg 93%
08:00 +13°C° 0 mm 1 mps 742 mmHg 87%
09:00 +14°C° 0 mm 1 mps 742 mmHg 81%
10:00 +16°C° 0 mm 2 mps 742 mmHg 76%
11:00 +17°C° 0 mm 2 mps 742 mmHg 73%
12:00 +17°C° 0 mm 2 mps 742 mmHg 70%
13:00 +18°C° 0 mm 2 mps 742 mmHg 66%
14:00 +17°C° 0 mm 2 mps 742 mmHg 70%
15:00 +18°C° 0 mm 1 mps 742 mmHg 74%
16:00 +16°C° 0 mm 1 mps 741 mmHg 78%
17:00 +15°C° 0 mm 1 mps 742 mmHg 79%
18:00 +15°C° 0 mm 1 mps 742 mmHg 81%
19:00 +14°C° 0 mm 1 mps 742 mmHg 83%
20:00 +14°C° 0 mm 1 mps 742 mmHg 83%
21:00 +13°C° 0 mm 1 mps 743 mmHg 84%
22:00 +13°C° 0 mm 1 mps 743 mmHg 85%
23:00 +13°C° 0 mm 1 mps 743 mmHg 85%

28 October, Wednesday

Time Temperature Precipitation Wind Pressure Humidity
00:00 +13°C° 0 mm 1 mps 743 mmHg 86%
01:00 +12°C° 0 mm 1 mps 743 mmHg 87%
02:00 +12°C° 0 mm 1 mps 743 mmHg 87%
03:00 +12°C° 0 mm 1 mps 743 mmHg 87%
04:00 +12°C° 0 mm 1 mps 743 mmHg 87%
05:00 +12°C° 0 mm 1 mps 743 mmHg 88%
06:00 +12°C° 0 mm 1 mps 743 mmHg 88%
07:00 +12°C° 0 mm 1 mps 744 mmHg 88%
08:00 +13°C° 0 mm 1 mps 744 mmHg 83%
09:00 +14°C° 0 mm 1 mps 744 mmHg 78%
10:00 +16°C° 0 mm 1 mps 744 mmHg 73%
11:00 +16°C° 0 mm 1 mps 744 mmHg 71%
12:00 +16°C° 0 mm 0 mps 744 mmHg 68%
13:00 +17°C° 0 mm 0 mps 744 mmHg 65%
14:00 +16°C° 0 mm 0 mps 744 mmHg 69%
15:00 +15°C° 0 mm 0 mps 744 mmHg 73%
16:00 +15°C° 0 mm 0 mps 744 mmHg 77%
17:00 +14°C° 0 mm 0 mps 744 mmHg 80%
18:00 +13°C° 0 mm 0 mps 744 mmHg 82%
19:00 +13°C° 0 mm 0 mps 744 mmHg 84%
20:00 +12°C° 0 mm 0 mps 745 mmHg 85%
21:00 +12°C° 0 mm 0 mps 745 mmHg 86%
22:00 +12°C° 0 mm 0 mps 745 mmHg 87%
23:00 +12°C° 0 mm 0 mps 745 mmHg 87%

29 October, Thursday

Time Temperature Precipitation Wind Pressure Humidity
00:00 +11°C° 0 mm 0 mps 745 mmHg 88%
01:00 +11°C° 0 mm 0 mps 745 mmHg 89%
02:00 +11°C° 0 mm 0 mps 745 mmHg 89%
03:00 +11°C° 0 mm 0 mps 745 mmHg 89%
04:00 +11°C° 0 mm 0 mps 745 mmHg 89%
05:00 +11°C° 0 mm 0 mps 746 mmHg 89%
06:00 +11°C° 0 mm 0 mps 746 mmHg 89%
07:00 +11°C° 0 mm 0 mps 746 mmHg 89%
08:00 +12°C° 0 mm 0 mps 746 mmHg 84%
09:00 +14°C° 0 mm 0 mps 747 mmHg 79%
10:00 +16°C° 0 mm 1 mps 747 mmHg 74%
11:00 +18°C° 0 mm 1 mps 747 mmHg 72%
12:00 +18°C° 0 mm 1 mps 747 mmHg 69%
13:00 +18°C° 0 mm 2 mps 747 mmHg 67%
14:00 +17°C° 0 mm 2 mps 747 mmHg 70%
15:00 +16°C° 0 mm 1 mps 747 mmHg 74%
16:00 +16°C° 0 mm 1 mps 747 mmHg 77%
17:00 +15°C° 0 mm 1 mps 748 mmHg 78%
18:00 +14°C° 0 mm 1 mps 748 mmHg 80%
19:00 +13°C° 0 mm 1 mps 749 mmHg 81%
20:00 +13°C° 0 mm 1 mps 749 mmHg 81%
21:00 +12°C° 0 mm 1 mps 749 mmHg 81%
22:00 +12°C° 0 mm 1 mps 750 mmHg 81%
23:00 +12°C° 0 mm 1 mps 750 mmHg 81%
Show more

We Need Your Consent

Meteoprog and our Service Providers may store and access personal data such as cookies, device identifiers or other similar technologies on your device and process such data to personalise content and ads, as well as provide social media features and to analyse the traffic.

  • Store and/or access information on your device

    Cookies, device identifiers or other information can be stored or accessed on your device for the purposes indicated above.

  • Personalised ads and content, ad and content measurement, audience insights, and products development

    Ads and content can be personalised based on a profile. More data can be added to better personalise ads and content. Ad and content performance can be measured. Insights about the audience who saw the ads and content can be derived. Such data can be used to develop or improve user’s experience, systems and software.

By clicking ‘I Agree’ you will allow the use of indicated cookies, device identifiers, web beacons or other similar technologies. Your settings can be changed in the browser on your device.

For certain purposes, legitimate interests may be relied on, rather than consent. You can read more about this in our Privacy and Cookie Policy.